Hurghada, Egypt

12:41 AM EET on December 05, 2016 (GMT +0200)
Hurghada International

Weather History for HEGN - January, 2014

Change the Weather History Date:

Thursday, January 16, 2014

  Actual Average Record
Temperature  
Mean Temperature 64 °F -  
Max Temperature 82 °F 67 °F 83 °F (2013)
Min Temperature 47 °F 51 °F 35 °F (2009)
Growing Degree Days 14 (Base 50)    
Moisture  
Dew Point 50 °F    
Average Humidity 61    
Maximum Humidity 82    
Minimum Humidity 25    
Precipitation  
Precipitation 0.00 in - - ()
Sea Level Pressure  
Sea Level Pressure 30.03 in    
Wind  
Wind Speed 3 mph ()    
Max Wind Speed 9 mph    
Max Gust Speed -    
Visibility 6.0 miles    
Events      
Averages and records for this station are not official NWS values.
T = Trace of Precipitation, MM = Missing Value Source: Averaged Metar Reports

Daily Weather History Graph

Daily Weather History Graph

Search for Another Location

Airport or City:

Trip Planner

Search our weather history database for the weather conditions in past years. The results will help you decide how hot, cold, wet, or windy it might be!

Date:

Astronomy

Jan. 16, 2014 Rise Set
Actual Time 6:35 AM EET 5:13 PM EET
Civil Twilight 6:10 AM EET 5:38 PM EET
Nautical Twilight 5:42 AM EET 6:07 PM EET
Astronomical Twilight 5:14 AM EET 6:35 PM EET
Moon 5:38 PM EET (1/16) 6:23 AM EET (1/16)
Length of Visible Light 11h 27m
Length of Day
10h 37m
Full, 100% of the Moon is Illuminated
Jan 16
Full
Jan 24
Last Quarter
Jan 30
New
Feb 6
First Quarter
Feb 15
Full

Hourly Weather History & Observations

Time (EET) Temp. Heat Index Dew Point Humidity Pressure Visibility Wind Dir Wind Speed Gust Speed Precip Events Conditions
12:00 AM 51.8 °F - 46.4 °F 82% 30.06 in - Calm Calm - N/A   Clear
1:00 AM 53.6 °F - 46.4 °F 77% 30.06 in - West 8.1 mph - N/A   Clear
2:00 AM 53 °F - 47 °F 72% 30.07 in 6 mi West 6.9 mph - -  
2:00 AM 53.6 °F - 46.4 °F 77% 30.06 in - West 9.2 mph - N/A   Clear
3:00 AM 51.8 °F - 44.6 °F 76% 30.06 in - West 6.9 mph - N/A   Clear
4:00 AM 51.8 °F - 44.6 °F 76% 30.06 in - North 5.8 mph - N/A   Clear
5:00 AM 49 °F - 42 °F 71% 30.06 in 6 mi Calm Calm - -  
5:00 AM 48.2 °F - 42.8 °F 82% 30.04 in - Calm Calm - N/A   Clear
6:00 AM 48.2 °F - 41.0 °F 76% 30.06 in - West 3.5 mph - N/A   Clear
7:00 AM 48.2 °F - 39.2 °F 71% 30.06 in - WNW 3.5 mph - N/A   Clear
8:00 AM 52 °F - 38 °F 49% 30.09 in 6 mi WSW 4.6 mph - -  
8:00 AM 51.8 °F - 39.2 °F 62% 30.06 in - WSW 4.6 mph - N/A   Clear
9:00 AM 68.0 °F - 44.6 °F 43% 30.09 in - Calm Calm - N/A   Clear
10:00 AM 75.2 °F - 50.0 °F 41% 30.06 in - Calm Calm - N/A   Clear
11:00 AM 78 °F - 49 °F 25% 30.08 in 6 mi Calm Calm - -  
11:00 AM 78.8 °F - 48.2 °F 34% 30.06 in - Calm Calm - N/A   Clear
12:00 PM 82.4 °F 81.7 °F 55.4 °F 39% 30.01 in - ESE 3.5 mph - N/A   Clear
1:00 PM 80.6 °F 80.5 °F 55.4 °F 42% 29.98 in - ESE 4.6 mph - N/A   Clear
2:00 PM 82 °F - 58 °F 33% 29.98 in 6 mi ESE 5.8 mph - -  
2:00 PM 82.4 °F 82.0 °F 57.2 °F 42% 29.98 in - ESE 5.8 mph - N/A   Clear
3:00 PM 80.6 °F 81.1 °F 59.0 °F 48% 29.98 in - East 4.6 mph - N/A   Clear
4:00 PM 78.8 °F - 59.0 °F 51% 29.98 in - ESE 6.9 mph - N/A   Clear
5:00 PM 75 °F - 60 °F 50% 29.98 in 6 mi ESE 5.8 mph - -  
5:00 PM 75.2 °F - 60.8 °F 61% 29.98 in - ESE 5.8 mph - N/A   Clear
6:00 PM 68.0 °F - 57.2 °F 68% 29.98 in - Calm Calm - N/A   Clear
7:00 PM 66.2 °F - 55.4 °F 68% 29.98 in - Calm Calm - N/A   Clear
8:00 PM 64 °F - 54 °F 61% 30.01 in 6 mi Calm Calm - -  
8:00 PM 64.4 °F - 53.6 °F 68% 30.01 in - Calm Calm - N/A   Clear
9:00 PM 60.8 °F - 53.6 °F 77% 30.01 in - Calm Calm - N/A   Clear
10:00 PM 60.8 °F - 55.4 °F 82% 30.01 in - Calm Calm - N/A   Clear
11:00 PM 60 °F - 54 °F 76% 30.01 in 6 mi Calm Calm - -  
11:00 PM 60.8 °F - 55.4 °F 82% 30.01 in - Calm Calm - N/A   Clear